Volver al catálogo

GLOBAL-14

ActivoComunicacionesVLEO
NORAD 49469·PAYLOAD·🇺🇸 United States

Lanzado Nov 18, 2021 desde Rocket Lab Launch Complex 1

Loading…

Próximos Pases (próximas 24 horas)

TLE

ActualizadoSource: Space-Track

Época: Sep 13, 2026, 23:39 UTC

1 49469U 21106A   26256.98552765  .00027319  00000-0  40127-3 0  9999
2 49469  42.0022 121.7455 0019809 284.5085  75.3563 15.54683439271937

Sigue GLOBAL-14 en tiempo real con AllMySat

Download on the App Store